Location: Lombard
(41.8800°N, 88.0080°W)
Time: 11:49:23
(UTC-06:00)

Transit 4A - Pass Details

Date: 30 November 2023
Orbit: 870 x 973 km, 66.8° (Epoch: 02 March)

Event Time Altitude Azimuth Distance (km) Brightness Sun altitude
Rises 04:48:45 0° 335° (NNW) 3,611 - -23.7°
Reaches altitude 10° 04:51:38 10° 345° (NNW) 2,647 - -23.1°
Exits shadow 04:51:57 11° 347° (NNW) 2,545 10.0 -23.1°
Maximum altitude 04:57:04 32° 48° (NE) 1,523 9.3 -22.1°
Drops below altitude 10° 05:02:22 10° 110° (ESE) 2,571 11.4 -21.2°
Sets 05:05:06 0° 120° (ESE) 3,492 12.2 -20.7°
